Terminal Aerodrome Forecast
Issued by NWS Northern Indiana

Home | Current Version | Previous Version | Graphics & Text | Print | Product List | Glossary On
Versions: 1 2 3 4 5 6 7 8 9 10 11 12
000
FTUS43 KIWX 081700
TAFFWA
TAF
KFWA 081720Z 0818/0918 27018G25KT P6SM SCT030
     FM090000 27005KT P6SM FEW040
     FM091000 29009KT P6SM BKN035=

USA.gov is the U.S. government's official web portal to all federal, state and local government web resources and services.